,,PA_Meas_PMT16A,,PR_Meas_QMR101_102,,RH_Meas_QMH101,,SR_Meas_QMS101,,TA_Meas_QMH101,,GenWind,,GenWind,
time,status,PA,status,PR,status,RH,status,SR,status,TA,status,DirAvg,status,SpdAvg,
2010-10-31, 00:00:04,VALID,917.112,VALID,0,VALID,95.2698,VALID,0,VALID,19.6428,VALID,261,VALID,0.253516,
2010-10-31, 00:01:04,VALID,917.103,VALID,0,VALID,95.3003,VALID,0,VALID,19.6833,VALID,261,VALID,0.286328,
2010-10-31, 00:02:04,VALID,917.093,VALID,0,VALID,95.2241,VALID,0,VALID,19.6638,VALID,261,VALID,0.416406,
2010-10-31, 00:03:04,VALID,917.062,VALID,0,VALID,95.1174,VALID,0,VALID,19.6428,VALID,261,VALID,0.404297,
2010-10-31, 00:04:04,VALID,917.076,VALID,0,VALID,95.0869,VALID,0,VALID,19.6443,VALID,6,VALID,0.921875,
2010-10-31, 00:05:04,VALID,917.029,VALID,0,VALID,95.0335,VALID,0,VALID,19.6443,VALID,21,VALID,0.571484,
2010-10-31, 00:06:04,VALID,917.021,VALID,0,VALID,95.003,VALID,0,VALID,19.6053,VALID,21,VALID,0.671094,
2010-10-31, 00:07:04,VALID,917.008,VALID,0,VALID,95.1326,VALID,0,VALID,19.6053,VALID,21,VALID,1.16133,
2010-10-31, 00:08:04,VALID,916.996,VALID,0,VALID,95.125,VALID,0,VALID,19.6248,VALID,21,VALID,1.05898,
2010-10-31, 00:09:04,VALID,916.985,VALID,0,VALID,94.9496,VALID,0,VALID,19.6053,VALID,21,VALID,1.22891,
2010-10-31, 00:10:04,VALID,916.979,VALID,0,VALID,94.9496,VALID,0,VALID,19.6443,VALID,21,VALID,0.774609,
2010-10-31, 00:11:04,VALID,916.975,VALID,0,VALID,94.9878,VALID,0,VALID,19.6233,VALID,21,VALID,0.619531,
2010-10-31, 00:12:04,VALID,916.958,VALID,0,VALID,95.0488,VALID,0,VALID,19.6638,VALID,21,VALID,0.272656,
2010-10-31, 00:13:04,VALID,916.924,VALID,0,VALID,95.0335,VALID,0,VALID,19.6833,VALID,21,VALID,0.659766,
2010-10-31, 00:14:04,VALID,916.947,VALID,0,VALID,94.9649,VALID,0,VALID,19.6623,VALID,21,VALID,0.379687,
2010-10-31, 00:15:04,VALID,916.93,VALID,0,VALID,94.8429,VALID,0,VALID,19.6623,VALID,21,VALID,0.569531,
2010-10-31, 00:16:04,VALID,916.898,VALID,0,VALID,94.8353,VALID,0,VALID,19.6833,VALID,21,VALID,0.542578,
2010-10-31, 00:17:04,VALID,916.891,VALID,0,VALID,94.8658,VALID,0,VALID,19.7238,VALID,21,VALID,0.665234,
2010-10-31, 00:18:04,VALID,916.873,VALID,0,VALID,94.8734,VALID,0,VALID,19.7043,VALID,21,VALID,0.221094,
2010-10-31, 00:19:04,VALID,916.858,VALID,0,VALID,94.9496,VALID,0,VALID,19.7028,VALID,21,VALID,1.03867,
2010-10-31, 00:20:04,VALID,916.864,VALID,0,VALID,94.8582,VALID,0,VALID,19.7223,VALID,21,VALID,0.75,
2010-10-31, 00:21:04,VALID,916.818,VALID,0,VALID,94.5913,VALID,0,VALID,19.7598,VALID,21,VALID,0.744922,
2010-10-31, 00:22:04,VALID,916.819,VALID,0,VALID,94.3779,VALID,0,VALID,19.8198,VALID,11,VALID,0.762891,
2010-10-31, 00:23:04,VALID,916.813,VALID,0,VALID,94.1873,VALID,0,VALID,19.8588,VALID,11,VALID,0.768359,
2010-10-31, 00:24:04,VALID,916.784,VALID,0,VALID,94.1111,VALID,0,VALID,19.8393,VALID,11,VALID,0.642187,
2010-10-31, 00:25:04,VALID,916.754,VALID,0,VALID,94.0958,VALID,0,VALID,19.8573,VALID,11,VALID,0.498437,
2010-10-31, 00:26:04,VALID,916.749,VALID,0,VALID,94.1492,VALID,0,VALID,19.9173,VALID,11,VALID,0.601953,
2010-10-31, 00:27:04,VALID,916.742,VALID,0,VALID,94.3398,VALID,0,VALID,19.9173,VALID,11,VALID,0.551953,
2010-10-31, 00:28:04,VALID,916.719,VALID,0,VALID,94.2559,VALID,0,VALID,19.8783,VALID,8,VALID,0.968359,
2010-10-31, 00:29:04,VALID,916.696,VALID,0,VALID,94.2635,VALID,0,VALID,19.8573,VALID,6,VALID,0.801953,
2010-10-31, 00:30:04,VALID,916.718,VALID,0,VALID,94.1644,VALID,0,VALID,19.8588,VALID,6,VALID,0.675391,
2010-10-31, 00:31:04,VALID,916.734,VALID,0,VALID,94.1568,VALID,0,VALID,19.8768,VALID,6,VALID,0.0714844,
2010-10-31, 00:32:04,VALID,916.698,VALID,0,VALID,94.2178,VALID,0,VALID,19.9173,VALID,6,VALID,0.169141,
2010-10-31, 00:33:04,VALID,916.724,VALID,0,VALID,94.3855,VALID,0,VALID,19.9173,VALID,6,VALID,0.588672,
2010-10-31, 00:34:04,VALID,916.705,VALID,0,VALID,94.5837,VALID,0,VALID,19.8978,VALID,6,VALID,0.501172,
2010-10-31, 00:35:04,VALID,916.699,VALID,0,VALID,94.6447,VALID,0,VALID,19.8978,VALID,6,VALID,0.221094,
2010-10-31, 00:36:04,VALID,916.691,VALID,0,VALID,94.8124,VALID,0,VALID,19.8768,VALID,6,VALID,0.270312,
2010-10-31, 00:37:04,VALID,916.664,VALID,0,VALID,94.9878,VALID,0,VALID,19.8978,VALID,6,VALID,0.621094,
2010-10-31, 00:38:04,VALID,916.654,VALID,0,VALID,95.1326,VALID,0,VALID,19.8768,VALID,6,VALID,0.594141,
2010-10-31, 00:39:04,VALID,916.634,VALID,0,VALID,95.2546,VALID,0,VALID,19.8783,VALID,6,VALID,0.571875,
2010-10-31, 00:40:04,VALID,916.676,VALID,0,VALID,95.3156,VALID,0,VALID,19.8573,VALID,6,VALID,0.513281,
2010-10-31, 00:41:04,VALID,916.675,VALID,0,VALID,95.3156,VALID,0,VALID,19.8603,VALID,6,VALID,0.530078,
2010-10-31, 00:42:04,VALID,916.675,VALID,0,VALID,95.3994,VALID,0,VALID,19.8393,VALID,6,VALID,0.628516,
2010-10-31, 00:43:04,VALID,916.702,VALID,0,VALID,95.4909,VALID,0,VALID,19.8393,VALID,6,VALID,0.603906,
2010-10-31, 00:44:04,VALID,916.685,VALID,0,VALID,95.59,VALID,0,VALID,19.8588,VALID,6,VALID,0.624609,
2010-10-31, 00:45:04,VALID,916.685,VALID,0,VALID,95.6205,VALID,0,VALID,19.8393,VALID,6,VALID,0.587891,
2010-10-31, 00:46:04,VALID,916.67,VALID,0,VALID,95.6891,VALID,0,VALID,19.8588,VALID,6,VALID,0.817969,
2010-10-31, 00:47:04,VALID,916.658,VALID,0,VALID,95.6891,VALID,0,VALID,19.8393,VALID,6,VALID,1.11367,
2010-10-31, 00:48:04,VALID,916.622,VALID,0,VALID,95.7577,VALID,0,VALID,19.8183,VALID,6,VALID,0.614062,
2010-10-31, 00:49:04,VALID,916.619,VALID,0,VALID,95.773,VALID,0,VALID,19.8198,VALID,6,VALID,0.582422,
2010-10-31, 00:50:04,VALID,916.627,VALID,0,VALID,95.8187,VALID,0,VALID,19.8198,VALID,6,VALID,0.609375,
2010-10-31, 00:51:04,VALID,916.582,VALID,0,VALID,95.8263,VALID,0,VALID,19.8198,VALID,6,VALID,0.758594,
2010-10-31, 00:52:04,VALID,916.59,VALID,0,VALID,95.8721,VALID,0,VALID,19.8393,VALID,6,VALID,1.10742,
2010-10-31, 00:53:04,VALID,916.574,VALID,0,VALID,95.7882,VALID,0,VALID,19.8198,VALID,6,VALID,0.932422,
2010-10-31, 00:54:04,VALID,916.587,VALID,0,VALID,95.773,VALID,0,VALID,19.8003,VALID,3,VALID,1.1543,
2010-10-31, 00:55:04,VALID,916.595,VALID,0,VALID,95.712,VALID,0,VALID,19.7808,VALID,3,VALID,0.9875,
2010-10-31, 00:56:04,VALID,916.579,VALID,0,VALID,95.773,VALID,0,VALID,19.8198,VALID,3,VALID,1.03789,
2010-10-31, 00:57:04,VALID,916.605,VALID,0,VALID,95.7349,VALID,0,VALID,19.8198,VALID,3,VALID,0.662891,
2010-10-31, 00:58:04,VALID,916.583,VALID,0,VALID,95.6891,VALID,0,VALID,19.8003,VALID,3,VALID,0.795313,
2010-10-31, 00:59:04,VALID,916.61,VALID,0,VALID,95.5138,VALID,0,VALID,19.7598,VALID,358,VALID,0.982422,
2010-10-31, 01:00:04,VALID,916.603,VALID,0,VALID,95.5367,VALID,0,VALID,19.8198,VALID,22,VALID,0.806641,
2010-10-31, 01:01:04,VALID,916.6,VALID,0,VALID,95.5062,VALID,0,VALID,19.8198,VALID,22,VALID,0.818359,
2010-10-31, 01:02:04,VALID,916.595,VALID,0,VALID,95.4985,VALID,0,VALID,19.8003,VALID,22,VALID,0.944531,
2010-10-31, 01:03:04,VALID,916.586,VALID,0,VALID,95.3766,VALID,0,VALID,19.7808,VALID,344,VALID,1.46445,
2010-10-31, 01:04:04,VALID,916.606,VALID,0,VALID,95.3994,VALID,0,VALID,19.8183,VALID,15,VALID,0.59375,
2010-10-31, 01:05:04,VALID,916.598,VALID,0,VALID,95.2851,VALID,0,VALID,19.8198,VALID,14,VALID,0.621094,
2010-10-31, 01:06:04,VALID,916.551,VALID,0,VALID,95.0869,VALID,0,VALID,19.8393,VALID,14,VALID,0.747266,
2010-10-31, 01:07:04,VALID,916.592,VALID,0,VALID,95.0945,VALID,0,VALID,19.8588,VALID,14,VALID,0.4875,
2010-10-31, 01:08:04,VALID,916.539,VALID,0,VALID,95.1174,VALID,0,VALID,19.8768,VALID,14,VALID,0.694141,
2010-10-31, 01:09:04,VALID,916.509,VALID,0,VALID,95.1479,VALID,0,VALID,19.8783,VALID,14,VALID,1.15469,
2010-10-31, 01:10:04,VALID,916.442,VALID,0,VALID,95.0792,VALID,0,VALID,19.8183,VALID,14,VALID,0.870703,
2010-10-31, 01:11:04,VALID,916.414,VALID,0,VALID,94.8124,VALID,0,VALID,19.8198,VALID,356,VALID,1.04453,
2010-10-31, 01:12:04,VALID,916.386,VALID,0,VALID,94.4313,VALID,0,VALID,19.8198,VALID,356,VALID,1.36367,
2010-10-31, 01:13:04,VALID,916.356,VALID,0,VALID,94.1949,VALID,0,VALID,19.8378,VALID,9,VALID,1.13086,
2010-10-31, 01:14:04,VALID,916.343,VALID,0,VALID,93.9662,VALID,0,VALID,19.8588,VALID,27,VALID,1.44023,
2010-10-31, 01:15:04,VALID,916.307,VALID,0,VALID,93.9357,VALID,0,VALID,19.8783,VALID,27,VALID,1.01875,
2010-10-31, 01:16:04,VALID,916.264,VALID,0,VALID,93.8747,VALID,0,VALID,19.8783,VALID,27,VALID,0.807031,
2010-10-31, 01:17:04,VALID,916.25,VALID,0,VALID,93.7223,VALID,0,VALID,19.8783,VALID,351,VALID,0.886328,
2010-10-31, 01:18:04,VALID,916.215,VALID,0,VALID,93.5774,VALID,0,VALID,19.8588,VALID,356,VALID,1.32969,
2010-10-31, 01:19:04,VALID,916.16,VALID,0,VALID,93.5622,VALID,0,VALID,19.8783,VALID,29,VALID,1.11094,
2010-10-31, 01:20:04,VALID,916.107,VALID,0,VALID,93.4478,VALID,0,VALID,19.8768,VALID,29,VALID,1.11016,
2010-10-31, 01:21:04,VALID,916.065,VALID,0,VALID,93.2496,VALID,0,VALID,19.9173,VALID,29,VALID,0.839453,
2010-10-31, 01:22:04,VALID,916.023,VALID,0,VALID,93.0285,VALID,0,VALID,19.9563,VALID,29,VALID,1.22109,
2010-10-31, 01:23:04,VALID,915.981,VALID,0,VALID,92.9599,VALID,0,VALID,19.9368,VALID,29,VALID,0.624219,
2010-10-31, 01:24:04,VALID,915.923,VALID,0,VALID,92.8456,VALID,0,VALID,19.9563,VALID,29,VALID,0.584766,
2010-10-31, 01:25:04,VALID,915.902,VALID,0,VALID,92.8075,VALID,0,VALID,19.9563,VALID,29,VALID,0.817969,
2010-10-31, 01:26:04,VALID,915.893,VALID,0,VALID,92.8913,VALID,0,VALID,19.9563,VALID,29,VALID,0.349609,
2010-10-31, 01:27:04,VALID,915.9,VALID,0,VALID,92.8075,VALID,0,VALID,19.9578,VALID,29,VALID,0.749219,
2010-10-31, 01:28:04,VALID,915.869,VALID,0,VALID,92.5406,VALID,0,VALID,19.9548,VALID,29,VALID,0.435937,
2010-10-31, 01:29:04,VALID,915.854,VALID,0,VALID,92.3806,VALID,0,VALID,19.9743,VALID,29,VALID,0.670313,
2010-10-31, 01:30:04,VALID,915.828,VALID,0,VALID,92.4034,VALID,0,VALID,19.9938,VALID,28,VALID,0.625781,
2010-10-31, 01:31:04,VALID,915.793,VALID,0,VALID,92.0756,VALID,0,VALID,19.9938,VALID,350,VALID,0.717969,
2010-10-31, 01:32:04,VALID,915.781,VALID,0,VALID,92.2662,VALID,0,VALID,20.0328,VALID,350,VALID,0.350781,
2010-10-31, 01:33:04,VALID,915.781,VALID,0,VALID,92.1823,VALID,0,VALID,20.0133,VALID,344,VALID,0.7875,
2010-10-31, 01:34:04,VALID,915.753,VALID,0,VALID,92.0832,VALID,0,VALID,20.0133,VALID,344,VALID,0.364062,
2010-10-31, 01:35:04,VALID,915.799,VALID,0,VALID,91.9384,VALID,0,VALID,20.0118,VALID,344,VALID,0.334375,
2010-10-31, 01:36:04,VALID,915.828,VALID,0,VALID,92.0604,VALID,0,VALID,20.0523,VALID,344,VALID,0.195313,
2010-10-31, 01:37:04,VALID,915.786,VALID,0,VALID,92.2891,VALID,0,VALID,20.0313,VALID,344,VALID,0.0601562,
2010-10-31, 01:38:04,VALID,915.801,VALID,0,VALID,92.4873,VALID,0,VALID,20.0523,VALID,344,VALID,0.50625,
2010-10-31, 01:39:04,VALID,915.8,VALID,0,VALID,92.8151,VALID,0,VALID,20.0328,VALID,344,VALID,0.726953,
2010-10-31, 01:40:04,VALID,915.775,VALID,0,VALID,93.0209,VALID,0,VALID,19.9938,VALID,344,VALID,1.00859,
2010-10-31, 01:41:04,VALID,915.796,VALID,0,VALID,93.1124,VALID,0,VALID,19.9743,VALID,344,VALID,0.745703,
2010-10-31, 01:42:04,VALID,915.788,VALID,0,VALID,93.242,VALID,0,VALID,19.9548,VALID,344,VALID,0.576172,
2010-10-31, 01:43:04,VALID,915.758,VALID,0,VALID,93.3564,VALID,0,VALID,19.9353,VALID,344,VALID,0.532422,
2010-10-31, 01:44:04,VALID,915.772,VALID,0,VALID,93.3716,VALID,0,VALID,19.9368,VALID,344,VALID,0.649609,
2010-10-31, 01:45:04,VALID,915.755,VALID,0,VALID,93.3335,VALID,0,VALID,19.9368,VALID,344,VALID,0.322656,
2010-10-31, 01:46:04,VALID,915.737,VALID,0,VALID,93.4555,VALID,0,VALID,19.9563,VALID,344,VALID,0,
2010-10-31, 01:47:04,VALID,915.751,VALID,0,VALID,93.5012,VALID,0,VALID,19.9563,VALID,344,VALID,0,
2010-10-31, 01:48:04,VALID,915.738,VALID,0,VALID,93.6613,VALID,0,VALID,19.9758,VALID,344,VALID,0.00117188,
2010-10-31, 01:49:04,VALID,915.782,VALID,0,VALID,93.6689,VALID,0,VALID,19.9563,VALID,344,VALID,0.364453,
2010-10-31, 01:50:04,VALID,915.789,VALID,0,VALID,93.5927,VALID,0,VALID,19.9368,VALID,344,VALID,0.451953,
2010-10-31, 01:51:04,VALID,915.814,VALID,0,VALID,93.7833,VALID,0,VALID,19.8768,VALID,344,VALID,0.180078,
2010-10-31, 01:52:04,VALID,915.772,VALID,0,VALID,94.0043,VALID,0,VALID,19.8978,VALID,344,VALID,0.544922,
2010-10-31, 01:53:04,VALID,915.775,VALID,0,VALID,94.2102,VALID,0,VALID,19.8783,VALID,344,VALID,0.708594,
2010-10-31, 01:54:04,VALID,915.734,VALID,0,VALID,94.3855,VALID,0,VALID,19.8393,VALID,344,VALID,0.616016,
2010-10-31, 01:55:04,VALID,915.694,VALID,0,VALID,94.6371,VALID,0,VALID,19.8393,VALID,13,VALID,0.773438,
2010-10-31, 01:56:04,VALID,915.662,VALID,0,VALID,94.7362,VALID,0,VALID,19.8183,VALID,13,VALID,1.09453,
2010-10-31, 01:57:04,VALID,915.657,VALID,0,VALID,94.7591,VALID,0,VALID,19.8588,VALID,14,VALID,0.957812,
2010-10-31, 01:58:04,VALID,915.642,VALID,0,VALID,94.7591,VALID,0.107441,VALID,19.8378,VALID,14,VALID,0.925391,
2010-10-31, 01:59:04,VALID,915.628,VALID,0,VALID,94.8582,VALID,0,VALID,19.8573,VALID,14,VALID,0.998828,
2010-10-31, 02:00:04,VALID,915.585,VALID,0,VALID,94.7514,VALID,0.107441,VALID,19.8573,VALID,14,VALID,0.980078,
2010-10-31, 02:01:04,VALID,915.62,VALID,0,VALID,94.7362,VALID,0.107441,VALID,19.8573,VALID,14,VALID,1.19297,
2010-10-31, 02:02:04,VALID,915.616,VALID,0,VALID,94.6981,VALID,0,VALID,19.8573,VALID,14,VALID,1.02188,
2010-10-31, 02:03:04,VALID,915.639,VALID,0,VALID,94.4541,VALID,0.107441,VALID,19.8363,VALID,14,VALID,1.02539,
2010-10-31, 02:04:04,VALID,915.638,VALID,0,VALID,94.4617,VALID,0.107441,VALID,19.8768,VALID,14,VALID,0.724219,
2010-10-31, 02:05:04,VALID,915.622,VALID,0,VALID,94.3931,VALID,0.107441,VALID,19.8753,VALID,14,VALID,0.935547,
2010-10-31, 02:06:04,VALID,915.606,VALID,0,VALID,94.4465,VALID,0.107441,VALID,19.8753,VALID,14,VALID,0.84375,
2010-10-31, 02:07:04,VALID,915.575,VALID,0,VALID,94.3169,VALID,0.107441,VALID,19.8963,VALID,12,VALID,0.958594,
2010-10-31, 02:08:04,VALID,915.596,VALID,0,VALID,94.2712,VALID,0.107441,VALID,19.8963,VALID,348,VALID,0.747656,
2010-10-31, 02:09:04,VALID,915.564,VALID,0,VALID,94.3321,VALID,0.107441,VALID,19.8963,VALID,348,VALID,1.04766,
2010-10-31, 02:10:04,VALID,915.558,VALID,0,VALID,94.4999,VALID,0.107441,VALID,19.8753,VALID,348,VALID,0.905469,
2010-10-31, 02:11:04,VALID,915.552,VALID,0,VALID,94.5685,VALID,0.107441,VALID,19.8768,VALID,348,VALID,0.831641,
2010-10-31, 02:12:04,VALID,915.563,VALID,0,VALID,94.5227,VALID,0.107441,VALID,19.8768,VALID,348,VALID,0.713672,
2010-10-31, 02:13:04,VALID,915.57,VALID,0,VALID,94.4922,VALID,0,VALID,19.8588,VALID,348,VALID,0.554297,
2010-10-31, 02:14:04,VALID,915.556,VALID,0,VALID,94.599,VALID,0,VALID,19.8573,VALID,348,VALID,0.621484,
2010-10-31, 02:15:04,VALID,915.515,VALID,0,VALID,94.6371,VALID,0,VALID,19.8783,VALID,348,VALID,0.628516,
2010-10-31, 02:16:04,VALID,915.51,VALID,0,VALID,94.6752,VALID,0,VALID,19.8783,VALID,348,VALID,0.740234,
2010-10-31, 02:17:04,VALID,915.506,VALID,0,VALID,94.881,VALID,0,VALID,19.8978,VALID,349,VALID,0.869141,
2010-10-31, 02:18:04,VALID,915.516,VALID,0,VALID,94.9268,VALID,0,VALID,19.8783,VALID,349,VALID,0.538281,
2010-10-31, 02:19:04,VALID,915.536,VALID,0,VALID,94.8887,VALID,0,VALID,19.8573,VALID,348,VALID,0.635156,
2010-10-31, 02:20:04,VALID,915.562,VALID,0,VALID,95.0106,VALID,0,VALID,19.8783,VALID,349,VALID,0.119141,
2010-10-31, 02:21:04,VALID,915.581,VALID,0,VALID,95.1097,VALID,0,VALID,19.8378,VALID,348,VALID,0.385938,
2010-10-31, 02:22:04,VALID,915.6,VALID,0,VALID,95.1707,VALID,0,VALID,19.8588,VALID,349,VALID,0.813281,
2010-10-31, 02:23:04,VALID,915.592,VALID,0,VALID,95.2622,VALID,0,VALID,19.8588,VALID,349,VALID,1.06875,
2010-10-31, 02:24:04,VALID,915.61,VALID,0,VALID,95.3461,VALID,0,VALID,19.8588,VALID,349,VALID,0.111719,
2010-10-31, 02:25:04,VALID,915.594,VALID,0.2,VALID,95.4223,VALID,0,VALID,19.8183,VALID,349,VALID,0.249609,
2010-10-31, 02:26:04,VALID,915.621,VALID,0,VALID,95.4833,VALID,0,VALID,19.8393,VALID,349,VALID,0.258594,
2010-10-31, 02:27:04,VALID,915.637,VALID,0,VALID,95.6129,VALID,0,VALID,19.8588,VALID,349,VALID,0.226953,
2010-10-31, 02:28:04,VALID,915.616,VALID,0,VALID,95.5443,VALID,0,VALID,19.8393,VALID,349,VALID,0.210938,
2010-10-31, 02:29:04,VALID,915.589,VALID,0,VALID,95.4985,VALID,0,VALID,19.8003,VALID,349,VALID,0.310547,
2010-10-31, 02:30:04,VALID,915.589,VALID,0,VALID,95.6129,VALID,0,VALID,19.8198,VALID,349,VALID,0.303516,
2010-10-31, 02:31:04,VALID,915.584,VALID,0,VALID,95.5824,VALID,0,VALID,19.7808,VALID,12,VALID,1.04961,
2010-10-31, 02:32:04,VALID,915.587,VALID,0,VALID,95.712,VALID,0,VALID,19.7793,VALID,43,VALID,0.614453,
2010-10-31, 02:33:04,VALID,915.573,VALID,0,VALID,95.7806,VALID,0,VALID,19.8003,VALID,43,VALID,0.0699219,
2010-10-31, 02:34:04,VALID,915.573,VALID,0,VALID,95.8111,VALID,0,VALID,19.7598,VALID,43,VALID,0.107813,
2010-10-31, 02:35:04,VALID,915.598,VALID,0,VALID,95.834,VALID,0,VALID,19.7808,VALID,43,VALID,0.387891,
2010-10-31, 02:36:04,VALID,915.563,VALID,0,VALID,95.7806,VALID,0,VALID,19.7613,VALID,356,VALID,1.35273,
2010-10-31, 02:37:04,VALID,915.585,VALID,0,VALID,95.8187,VALID,0,VALID,19.7403,VALID,296,VALID,0.608203,
2010-10-31, 02:38:04,VALID,915.591,VALID,0.2,VALID,95.834,VALID,0,VALID,19.7808,VALID,28,VALID,0.692187,
2010-10-31, 02:39:04,VALID,915.577,VALID,0,VALID,95.8568,VALID,0,VALID,19.7808,VALID,348,VALID,0.876953,
2010-10-31, 02:40:04,VALID,915.622,VALID,0,VALID,95.7882,VALID,0,VALID,19.7613,VALID,248,VALID,0.485156,
2010-10-31, 02:41:04,VALID,915.621,VALID,0,VALID,95.8187,VALID,0,VALID,19.7418,VALID,248,VALID,0.248437,
2010-10-31, 02:42:04,VALID,915.66,VALID,0,VALID,95.8568,VALID,0,VALID,19.7613,VALID,50,VALID,0.834375,
2010-10-31, 02:43:04,VALID,915.625,VALID,0.2,VALID,95.8645,VALID,0,VALID,19.7613,VALID,50,VALID,0.607422,
2010-10-31, 02:44:04,VALID,915.619,VALID,0.2,VALID,95.895,VALID,0,VALID,19.7628,VALID,54,VALID,0.589844,
2010-10-31, 02:45:04,VALID,915.545,VALID,0.2,VALID,95.9254,VALID,0,VALID,19.7223,VALID,10,VALID,2.56133,
2010-10-31, 02:46:04,VALID,915.557,VALID,0,VALID,95.9864,VALID,0,VALID,19.7418,VALID,305,VALID,0.530859,
2010-10-31, 02:47:04,VALID,915.575,VALID,0,VALID,96.0245,VALID,0,VALID,19.7433,VALID,258,VALID,0.457812,
2010-10-31, 02:48:04,VALID,915.554,VALID,0,VALID,96.0932,VALID,0,VALID,19.7223,VALID,289,VALID,0.885938,
2010-10-31, 02:49:04,VALID,915.543,VALID,0,VALID,96.0855,VALID,0,VALID,19.7013,VALID,262,VALID,1.29883,
2010-10-31, 02:50:04,VALID,915.497,VALID,0,VALID,96.1084,VALID,0,VALID,19.7028,VALID,291,VALID,0.999219,
2010-10-31, 02:51:04,VALID,915.5,VALID,0,VALID,96.1618,VALID,0,VALID,19.7028,VALID,290,VALID,0.625,
2010-10-31, 02:52:04,VALID,915.505,VALID,0,VALID,96.1923,VALID,0,VALID,19.7223,VALID,260,VALID,1.3793,
2010-10-31, 02:53:04,VALID,915.516,VALID,0,VALID,96.1846,VALID,0,VALID,19.7043,VALID,259,VALID,1.02734,
2010-10-31, 02:54:04,VALID,915.484,VALID,0,VALID,96.238,VALID,0,VALID,19.6833,VALID,274,VALID,0.683984,
2010-10-31, 02:55:04,VALID,915.486,VALID,0,VALID,96.299,VALID,0,VALID,19.6623,VALID,274,VALID,0.3375,
2010-10-31, 02:56:04,VALID,915.538,VALID,0,VALID,96.299,VALID,0,VALID,19.6638,VALID,274,VALID,0.7,
2010-10-31, 02:57:04,VALID,915.514,VALID,0,VALID,96.3295,VALID,0,VALID,19.6443,VALID,246,VALID,1.04336,
2010-10-31, 02:58:04,VALID,915.536,VALID,0,VALID,96.3524,VALID,0,VALID,19.6248,VALID,242,VALID,0.812109,
2010-10-31, 02:59:04,VALID,915.529,VALID,0,VALID,96.3752,VALID,0,VALID,19.5843,VALID,242,VALID,0.439453,
2010-10-31, 03:00:04,VALID,915.559,VALID,0,VALID,96.4362,VALID,0,VALID,19.6443,VALID,242,VALID,0.724219,
2010-10-31, 03:01:04,VALID,915.529,VALID,0,VALID,96.4515,VALID,0,VALID,19.6443,VALID,243,VALID,0.467187,
2010-10-31, 03:02:04,VALID,915.574,VALID,0,VALID,96.4896,VALID,0,VALID,19.6443,VALID,263,VALID,0.463281,
2010-10-31, 03:03:04,VALID,915.55,VALID,0,VALID,96.5353,VALID,0,VALID,19.6443,VALID,263,VALID,0.414453,
2010-10-31, 03:04:04,VALID,915.524,VALID,0,VALID,96.5658,VALID,0,VALID,19.6638,VALID,263,VALID,0.663281,
2010-10-31, 03:05:04,VALID,915.581,VALID,0,VALID,96.5582,VALID,0,VALID,19.6443,VALID,245,VALID,0.360156,
2010-10-31, 03:06:04,VALID,915.574,VALID,0,VALID,96.5658,VALID,0,VALID,19.6428,VALID,31,VALID,1.05781,
2010-10-31, 03:07:04,VALID,915.551,VALID,0,VALID,96.5734,VALID,0,VALID,19.6458,VALID,64,VALID,0.542188,
2010-10-31, 03:08:04,VALID,915.542,VALID,0,VALID,96.5963,VALID,0,VALID,19.6248,VALID,64,VALID,0.794141,
2010-10-31, 03:09:04,VALID,915.524,VALID,0,VALID,96.5658,VALID,0,VALID,19.6053,VALID,253,VALID,1.38828,
2010-10-31, 03:10:04,VALID,915.532,VALID,0,VALID,96.6192,VALID,0,VALID,19.6053,VALID,251,VALID,0.99375,
2010-10-31, 03:11:04,VALID,915.434,VALID,0,VALID,96.6192,VALID,0,VALID,19.6053,VALID,263,VALID,0.590234,
2010-10-31, 03:12:04,VALID,915.443,VALID,0,VALID,96.5887,VALID,0,VALID,19.6053,VALID,263,VALID,0.736719,
2010-10-31, 03:13:04,VALID,915.459,VALID,0,VALID,96.5734,VALID,0.107441,VALID,19.6053,VALID,226,VALID,1.21875,
2010-10-31, 03:14:04,VALID,915.453,VALID,0,VALID,96.5887,VALID,0,VALID,19.5843,VALID,259,VALID,0.866406,
2010-10-31, 03:15:04,VALID,915.439,VALID,0,VALID,96.5811,VALID,0,VALID,19.6053,VALID,258,VALID,0.363281,
2010-10-31, 03:16:04,VALID,915.419,VALID,0,VALID,96.5963,VALID,0,VALID,19.6248,VALID,259,VALID,0.263281,
2010-10-31, 03:17:04,VALID,915.478,VALID,0,VALID,96.5582,VALID,0,VALID,19.6053,VALID,259,VALID,0.769141,
2010-10-31, 03:18:04,VALID,915.404,VALID,0,VALID,96.5201,VALID,0,VALID,19.5843,VALID,82,VALID,1.97969,
2010-10-31, 03:19:04,VALID,915.44,VALID,0,VALID,96.5124,VALID,0,VALID,19.5843,VALID,224,VALID,0.914063,
2010-10-31, 03:20:04,VALID,915.441,VALID,0,VALID,96.4667,VALID,0,VALID,19.6038,VALID,224,VALID,0.369141,
2010-10-31, 03:21:04,VALID,915.437,VALID,0,VALID,96.4667,VALID,0.107441,VALID,19.6038,VALID,224,VALID,0.709766,
2010-10-31, 03:22:04,VALID,915.43,VALID,0,VALID,96.4133,VALID,0,VALID,19.5843,VALID,269,VALID,1.21563,
2010-10-31, 03:23:04,VALID,915.411,VALID,0,VALID,96.3676,VALID,0,VALID,19.6038,VALID,260,VALID,1.07344,
2010-10-31, 03:24:04,VALID,915.408,VALID,0,VALID,96.3295,VALID,0.107441,VALID,19.6428,VALID,261,VALID,0.405859,
2010-10-31, 03:25:04,VALID,915.388,VALID,0,VALID,96.3066,VALID,0.107441,VALID,19.6233,VALID,265,VALID,0.670703,
2010-10-31, 03:26:04,VALID,915.41,VALID,0,VALID,96.2304,VALID,0,VALID,19.6248,VALID,273,VALID,0.763281,
2010-10-31, 03:27:04,VALID,915.411,VALID,0,VALID,96.2075,VALID,0,VALID,19.6443,VALID,273,VALID,0.598047,
2010-10-31, 03:28:04,VALID,915.391,VALID,0,VALID,96.2075,VALID,0,VALID,19.6233,VALID,277,VALID,0.5125,
2010-10-31, 03:29:04,VALID,915.383,VALID,0,VALID,96.1008,VALID,0.107441,VALID,19.5843,VALID,266,VALID,1.32734,
2010-10-31, 03:30:04,VALID,915.36,VALID,0,VALID,96.0932,VALID,0,VALID,19.6038,VALID,215,VALID,0.866016,
2010-10-31, 03:31:04,VALID,915.37,VALID,0,VALID,96.0245,VALID,0.107441,VALID,19.6038,VALID,301,VALID,1.82305,
2010-10-31, 03:32:04,VALID,915.342,VALID,0,VALID,95.9559,VALID,0.107441,VALID,19.6233,VALID,296,VALID,0.813281,
2010-10-31, 03:33:04,VALID,915.33,VALID,0,VALID,95.9407,VALID,0.107441,VALID,19.6233,VALID,11,VALID,1.14141,
2010-10-31, 03:34:04,VALID,915.306,VALID,0,VALID,95.9254,VALID,0.107441,VALID,19.6233,VALID,10,VALID,0.627734,
2010-10-31, 03:35:04,VALID,915.299,VALID,0,VALID,95.9178,VALID,0,VALID,19.6233,VALID,11,VALID,0.401172,
2010-10-31, 03:36:04,VALID,915.301,VALID,0,VALID,95.9102,VALID,0.107441,VALID,19.6038,VALID,11,VALID,0.550781,
2010-10-31, 03:37:04,VALID,915.278,VALID,0,VALID,95.9331,VALID,0.107441,VALID,19.5843,VALID,11,VALID,0.373828,
2010-10-31, 03:38:04,VALID,915.274,VALID,0,VALID,95.9331,VALID,0.107441,VALID,19.5843,VALID,10,VALID,0.101563,
2010-10-31, 03:39:04,VALID,915.276,VALID,0,VALID,95.9712,VALID,0.107441,VALID,19.5843,VALID,11,VALID,0.0394531,
2010-10-31, 03:40:04,VALID,915.296,VALID,0,VALID,95.9788,VALID,0.107441,VALID,19.5843,VALID,11,VALID,0.413281,
2010-10-31, 03:41:04,VALID,915.298,VALID,0,VALID,95.9483,VALID,0.107441,VALID,19.5648,VALID,11,VALID,0.113281,
2010-10-31, 03:42:04,VALID,915.29,VALID,0,VALID,95.9636,VALID,0,VALID,19.5243,VALID,10,VALID,0.0382813,
2010-10-31, 03:43:04,VALID,915.287,VALID,0,VALID,95.9636,VALID,0,VALID,19.5258,VALID,11,VALID,0.199609,
2010-10-31, 03:44:04,VALID,915.296,VALID,0,VALID,95.9788,VALID,0,VALID,19.5663,VALID,11,VALID,0.258984,